Welcome to the New NWS' Forecast!
Most changes are behind the scenes, but click here for differences you might notice.
Latest weather observations around

Bedford, Hanscom Field (KBED)

Using English Units (Switch to International System of Units)
Date/ Time (EDT) Wind (mph) Vis. (mi) Weather Sky Cond. Temp (°F) Rel. Humidity Wind Chill (°F) Heat Index (°F) Pressure Precip. (in)
Air Dwpt 6 hour Altimeter (inHg) Sea level (inHg) 1 hr 3 hr 6 hr
Max Min
Jul 16 05:56 NW 3 0.25 Fog VV002 65 65     100%     29.98 30.01      
Jul 16 04:56 Calm 0.25 Fog VV002 65 65     100%     29.97 30      
Jul 16 04:29 Calm 0.25 Fog VV002 65 65     100%     29.97        
Jul 16 04:11 N 3 0.75 Fog/Mist VV002 64 64     100%     29.97        
Jul 16 04:07 N 3 1.75 Fog/Mist SCT003 64 64     100%     29.96        
Jul 16 04:05 N 3 3 Fog/Mist SCT003 64 64     100%     29.96        
Jul 16 03:56 N 3 8 Clear CLR 65 64     97%     29.96 29.99      
Jul 16 02:56 Calm 8 Clear CLR 66 65     96%     29.97 30      
Jul 16 01:56 Calm 7 Clear CLR 67 66     97%     29.97 30      
Jul 16 00:56 Calm 8 Clear CLR 67 66     97%     29.97 30      
Jul 15 23:56 Calm 10 Clear CLR 68 66     93%     29.97 30      
Jul 15 22:56 NE 5 10 Clear CLR 69 66     90%     29.96 29.99      
Jul 15 21:56 E 6 10 Clear CLR 71 67     87%   72 29.96 29.99      
Jul 15 20:56 ENE 5 10 Mostly Cloudy BKN110 73 67     81%   74 29.95 29.98      
Jul 15 19:56 ENE 7 10 Partly Cloudy FEW030 SCT140 73 67     81%   74 29.94 29.97      
Jul 15 18:56 ESE 9 10 Partly Cloudy FEW030 SCT140 76 68     76%   77 29.93 29.96      
Jul 15 17:56 ESE 8 10 Clear CLR 79 69     72%   80 29.92 29.95      
Jul 15 16:56 E 11 10 Mostly Cloudy BKN200 83 70     65%   87 29.91 29.94      
Jul 15 15:56 SW 5 10 Mostly Cloudy SCT045 BKN200 86 69     57%   90 29.92 29.95      
Jul 15 14:56 NNW 5 10 Partly Cloudy SCT025 86 69     57%   90 29.93 29.96      
Jul 15 13:56 Calm 10 Partly Cloudy SCT025 83 70     65%   87 29.94 29.97      
Jul 15 12:56 NE 6 10 Partly Cloudy SCT020 80 71     74%   84 29.95 29.98      
Jul 15 12:23 NW 6 10 Partly Cloudy SCT014 79 71     77%   82 29.96        
Jul 15 11:56 Calm 10 Mostly Cloudy BKN012 76 70     82%   77 29.96 29.99      
Jul 15 10:56 Calm 6 Haze OVC012 75 69     82%   76 29.96 29.99      
Jul 15 10:48 Calm 10 Cloudy OVC010 74 69     85%   75 29.97        
Jul 15 09:56 Calm 5 Fog/Mist OVC006 71 68     90%   72 29.97 30      
Jul 15 08:56 W 5 5 Fog/Mist OVC006 70 67     90%     29.97 30.01      
Jul 15 07:56 Calm 10 Cloudy OVC006 69 67     93%     29.98 30.01     0
Jul 15 07:07 Calm 10 Cloudy OVC009 68 67     96%     29.98        
Jul 15 06:56 Calm 10 Cloudy OVC010 68 67     96%     29.98 30.01      
Jul 15 05:56 Calm 10 Cloudy OVC011 67 66     97%     29.97 30.01      
Jul 15 05:34 Calm 10 Mostly Cloudy BKN012 BKN120 67 66     97%     29.97        
Notice The following observation data may not be complete
Jul 15 04:42   10 Cloudy SCT013 OVC110          %              
Jul 15 03:56 S 3 10 Cloudy BKN012 OVC070 67 66     97%     29.98 30.01 0    
Jul 15 02:56 S 3 10 Cloudy BKN012 OVC055 67 65     93%     30 30.03      
Jul 15 01:56 S 6 10 Partly Cloudy FEW060 SCT085 67 66     97%     30 30.03     0
Jul 15 00:56 S 5 10 Mostly Clear FEW055 67 66     97%     30.01 30.04      
Jul 14 23:56 S 3 10 Partly Cloudy SCT055 68 66     93%     30.02 30.05 0    
Jul 14 22:56 E 6 4 Rain and Fog/Mist SCT050 OVC070 68 67     96%     30.04 30.07 0 0  
Jul 14 21:56 SW 3 6 Light Rain and Fog/Mist FEW046 OVC060 71 64     79%   72 30.04 30.07 0    
Jul 14 20:56 SSE 6 10 Mostly Cloudy BKN070 BKN120 72 64     76%   72 30.03 30.06      
Jul 14 19:56 E 5 10 Clear CLR 72 63     73%   72 30.03 30.06      
Jul 14 18:56 E 8 10 Cloudy OVC110 72 62     71%   72 30.03 30.07      
Jul 14 17:56 E 8 10 Partly Cloudy FEW090 SCT120 73 61     66%   73 30.04 30.08      
Jul 14 16:56 E 9 10 Mostly Cloudy SCT090 BKN110 75 58     55%   75 30.06 30.09      
Jul 14 15:56 E 11 10 Mostly Cloudy BKN100 76 58     54%   76 30.06 30.1      
Jul 14 14:56 E 13 10 Mostly Cloudy SCT025 BKN120 77 56     48%   77 30.08 30.11      
Jul 14 13:56 E 11 10 Mostly Cloudy SCT030 BKN110 79 57     47%   79 30.09 30.11      
Jul 14 12:56 ESE 9 10 Mostly Cloudy BKN110 78 58     50%   78 30.1 30.13      
Jul 14 11:56 E 7 10 Mostly Cloudy BKN120 77 58     52%   77 30.12 30.15      
Jul 14 10:56 SE 8 10 Mostly Cloudy BKN140 77 60     56%   77 30.13 30.16      
Jul 14 09:56 Calm 10 Mostly Cloudy BKN140 73 60     64%   73 30.14 30.17      
Jul 14 08:56 SSE 3 10 Clear CLR 71 60     68%   71 30.16 30.19      
Jul 14 07:56 SSE 3 10 Partly Cloudy SCT140 69 59     70%     30.17 30.2      
Jul 14 06:56 Calm 10 Partly Cloudy SCT140 63 58     84%     30.17 30.21      
Jul 14 05:56 Calm 10 Mostly Clear FEW080 59 56     90%     30.18 30.21      
Jul 14 03:56 Calm 10 Clear CLR 61 56     83%     30.18 30.21      
Jul 14 02:56 Calm 10 Cloudy OVC039 63 55     75%     30.19 30.22      
Jul 14 01:56 Calm 10 Mostly Cloudy BKN040 BKN050 65 55     70%     30.19 30.22      
Jul 14 00:56 S 5 10 Mostly Cloudy BKN041 66 53     63%     30.2 30.23      
Jul 13 23:56 S 7 10 Mostly Clear FEW042 67 53     61%     30.21 30.24      
Jul 13 22:56 SSE 7 10 Mostly Cloudy BKN039 69 54     59%     30.22 30.25      
Jul 13 21:56 SSE 7 10 Partly Cloudy SCT150 70 53     55%     30.21 30.24      
Jul 13 20:56 5 10 Clear CLR 70 55     59%     30.2 30.23      
Jul 13 19:56 E 10 10 Mostly Clear FEW100 71 59     66%   71 30.18 30.22      
Jul 13 18:56 E 11 10 Partly Cloudy SCT065 75 58     55%   75 30.18 30.21      
Jul 13 17:56 ENE 14 10 Partly Cloudy SCT065 77 57     50%   77 30.17 30.2      
Jul 13 16:56 E 14 10 Partly Cloudy SCT065 SCT095 80 57     45%   80 30.17 30.2      
Jul 13 15:56 ENE 13 10 Mostly Cloudy SCT065 BKN095 82 60     47%   82 30.17 30.2      
Jul 13 14:56 E 14 10 Partly Cloudy SCT060 84 61     46%   84 30.17 30.2      
Jul 13 13:56 S 8 10 Partly Cloudy SCT055 84 62     48%   85 30.18 30.21      
Jul 13 12:56 S 8 10 Partly Cloudy SCT046 82 62     51%   83 30.19 30.22      
Jul 13 11:56 SW 6 10 Mostly Clear FEW045 81 61     51%   82 30.21 30.24      
Jul 13 10:56 SSE 7 10 Clear CLR 78 60     54%   78 30.23 30.26      
Jul 13 09:56 SE 10 10 Clear CLR 77 59     54%   77 30.24 30.27      
Jul 13 08:56 S 6 10 Partly Cloudy SCT075 73 59     61%   73 30.25 30.28      
Jul 13 07:56 S 5 10 Mostly Cloudy SCT080 BKN100 70 59     68%     30.24 30.27      
Jul 13 06:56 SSE 6 10 Partly Cloudy SCT100 67 57     71%     30.23 30.26      
Jul 13 05:56 Calm 10 Clear CLR 61 56     83%     30.22 30.25      
Jul 13 03:56 Calm 10 Cloudy OVC085 61 57     87%     30.22 30.25      
May 14 11:56 7 10 Cloudy OVC027 62 51     67%     29.97 30.01      
May 14 05:56 Calm 10 Clear   50 47     89%     30 30.04      
May 13 01:34 NNW 5 8 Mostly Cloudy BKN006 46 45     96% 44   30.12        
May 12 16:56 NNW 5 3 Light Rain and Fog/Mist OVC005 48 47     96% 46   30.11 30.15 0 0  
Jun 11 22:56 SW 6 10 Clear CLR 78 61     56%   78 29.91 29.94      
Jun 11 12:56 WSW 8 10 Clear CLR 83 58     43%   83 29.94 29.97      
Jun 10 08:56 SW 6 10 Clear CLR 73 53     50%   72 29.95 29.98      
Jun 09 09:56 W 7 10 Partly Cloudy SCT150 70 44     39%     29.64 29.67      
Jun 09 03:56 Calm 10 Clear   55 47     74%     29.71 29.74      
Jun 08 11:56 5 10 Clear CLR 77 47     35%   76 30 30.03      
Jun 07 16:56 ESE 8 10 Mostly Clear FEW040 70 44     39%     29.94 29.98      
Jun 07 11:56 NE 9 10 Clear CLR 66 50     56%     29.95 29.99      
Jun 06 08:48 NE 11 2 Fog/Mist OVC004 49 47     93% 44   29.82   0    
Notice The following observation data may not be complete
Jun 06 08:03   1.75 Fog/Mist BKN010 OVC014          %         0    
Jun 06 05:56 NE 16 1.5 Fog/Mist OVC009 49 46     90% 43   29.8 29.84 0    
Notice The following observation data may not be complete
Jun 06 03:56   6 Light Rain and Fog/Mist OVC010          %         0    
Jun 05 14:56 ENE 10 1.25 Fog/Mist VV004 56 53     90%     29.85 29.88